Location: Gazon
(48.1318°N, 1.2708°W)
Time: 02:05:21
(UTC+00:00)

Cosmos 1908 Rocket - Pass Details

Date: 18 September 2020
Orbit: 606 x 631 km, 82.5° (Epoch: 29 October)

Event Time Altitude Azimuth Distance (km) Brightness Sun altitude
Rises 18:44:29 0° 190° (S) 2,858 7.0 -6.5°
Reaches altitude 10° 18:46:41 10° 191° (SSW) 1,961 6.2 -6.8°
Maximum altitude 18:51:02 82° 278° (W) 627 3.7 -7.5°
Drops below altitude 10° 18:55:27 10° 8° (N) 1,992 6.2 -8.3°
Sets 18:57:42 0° 9° (N) 2,906 7.0 -8.6°
